SCP
0 0 1 1 1 1 2 1 1 1 1 0 0 0 0 0 0 0 0 0 -0 -0 -0 -0 -0 -0 -0 -0 -0 -0 -0 -0 -0 -0 -0 -0 -0 -0 -0 -0 -0 -0 -0
0 0 0 1 1 1 2 1 1 1 1 1 1 0 0 0 0 0 0 0 -0 -0 0 -0 -0 -0 -0 -0 -0 -0 -0 -0 -0 -0 -0 -0 -0 -0 -0 -0 -0 -0 -0
0 0 1 2 1 1 1 2 1 1 1 1 1 1 1 0 0 0 0 0 0 0 0 0 -0 -0 -0 -0 -0 -0 -0 -0 -0 -0 0 0 -0 -0 -0 -0 -0 -0 -0
-0 -0 -0 1 1 1 2 2 1 1 1 1 1 1 1 1 1 0 0 0 0 0 0 0 -0 -0 -0 -0 -0 -0 -0 -0 -0 0 0 0 -0 -0 -0 -0 -0 -0 -0
-0 -0 -0 0 2 2 2 2 2 1 1 2 1 1 1 1 1 1 1 0 0 0 0 0 -0 0 0 0 -0 -0 -0 -0 0 0 0 0 0 -0 -0 -0 -0 0 0
-0 0 -0 0 1 2 2 2 2 1 1 2 2 1 1 1 1 1 1 1 0 0 0 0 0 0 0 0 -0 -0 -0 -0 0 0 0 0 0 -0 -0 -0 0 0 0
0 0 0 0 0 1 2 2 2 2 1 2 2 2 1 1 1 1 1 1 1 0 0 0 0 0 0 0 0 -0 0 0 0 0 0 0 0 -0 -0 -0 0 0 0
0 -0 0 0 0 0 1 2 2 2 1 2 2 2 2 1 1 1 1 1 1 1 0 0 0 0 0 0 0 0 0 0 0 0 0 0 0 0 -0 0 0 0 0
-0 -0 -0 0 0 0 0 1 2 2 2 2 2 2 2 1 1 1 1 1 1 1 1 0 0 0 0 0 0 0 0 0 0 0 0 0 0 0 0 0 0 0 0
0 0 0 0 1 1 1 1 1 2 2 1 2 2 1 1 1 1 1 1 1 1 1 0 0 0 0 0 0 0 0 0 0 0 0 0 0 0 0 0 0 0 0
0 0 0 0 0 0 1 1 1 1 1 1 1 1 1 2 1 1 1 1 1 1 1 0 0 0 0 0 0 0 0 0 0 0 0 0 0 0 0 0 0 0 0
-0 0 0 0 0 0 1 1 1 1 1 1 2 2 2 2 2 1 1 1 1 1 0 0 0 0 0 0 0 0 0 0 0 0 0 0 0 0 0 0 0 0 0
-0 -0 -0 0 0 0 0 1 1 2 1 2 1 2 2 2 1 1 1 1 1 0 1 0 0 0 0 0 0 0 0 0 0 0 0 0 0 0 0 0 0 0 0
-0 -0 -0 0 0 0 0 0 1 1 1 1 1 1 2 2 1 1 1 1 1 1 0 0 0 0 0 0 0 0 0 0 0 0 0 0 0 0 0 0 0 0 0
-0 -0 -0 -0 0 0 0 0 1 1 1 1 1 1 2 1 1 1 1 1 1 0 0 0 0 0 0 0 0 0 0 0 0 0 0 0 0 0 0 0 0 0 0
-0 -0 -0 -0 -0 0 0 0 0 1 1 1 2 1 1 2 1 1 1 0 0 0 0 0 0 0 0 0 0 0 0 0 0 0 0 0 0 0 0 0 0 0 0
-0 -0 -0 -0 -0 -0 0 0 0 1 1 1 2 1 1 2 1 1 0 0 0 0 0 0 0 0 0 0 0 0 0 0 0 0 0 0 0 0 0 0 0 0 0
-0 -0 -0 -0 -0 -0 0 0 0 1 1 1 1 1 1 1 1 1 0 0 0 0 0 0 0 0 0 0 0 0 0 0 0 0 0 0 0 0 0 0 0 0 0
0 0 -0 0 -0 -0 -0 0 0 0 1 1 1 1 1 1 0 0 0 0 0 0 0 0 0 0 0 0 0 0 0 0 0 0 0 0 0 0 0 0 0 0 0
0 0 0 0 -0 -0 -0 0 0 0 1 1 1 1 0 0 0 0 0 0 0 0 0 0 0 0 0 0 0 0 0 0 0 0 0 0 0 0 0 0 0 0 0
0 0 0 0 0 -0 -0 0 0 0 1 1 1 0 0 0 0 0 0 0 0 0 0 0 0 0 0 0 0 0 0 0 0 0 0 0 0 0 0 0 0 0 0
0 0 0 0 0 0 0 0 0 0 1 1 1 0 0 0 0 0 0 0 0 0 0 0 0 0 0 0 0 0 0 0 0 0 0 0 0 0 0 0 0 0 0
0 0 0 0 0 0 0 0 0 0 1 1 0 0 0 0 0 0 0 0 0 0 0 0 0 0 0 0 0 0 0 0 0 0 0 0 0 0 0 0 0 0 0
0 0 0 0 0 0 0 0 0 0 0 0 0 0 0 0 0 0 0 0 0 0 0 0 0 0 0 0 0 0 0 0 0 0 0 0 0 0 0 0 0 0 0
0 0 0 0 0 0 0 0 0 0 1 0 0 0 0 0 0 0 0 0 0 0 0 0 0 0 0 0 0 0 0 0 0 0 0 0 0 0 0 0 0 0 0
0 0 0 0 0 0 0 0 0 0 1 0 0 0 0 0 0 0 0 0 0 0 0 0 0 0 0 0 0 0 0 0 0 0 0 0 0 0 0 0 0 0 0
Wind_Speed_500mb
32 24 38 41 53 54 64 67 65 65 66 63 62 61 60 58 56 55 56 53 50 48 43 39 38 37 34 32 30 29 31 31 36 37 40 39 39 39 40 38 39 38 38
32 30 27 40 49 62 66 67 68 69 70 66 66 65 64 61 59 57 56 53 52 50 47 41 39 39 35 34 31 30 32 33 36 36 40 41 39 39 36 35 38 40 38
39 43 41 33 50 58 65 70 71 73 74 72 69 68 67 65 63 60 57 54 53 50 48 45 42 41 38 33 31 34 34 33 33 36 39 42 42 38 36 35 35 34 34
42 44 54 37 45 57 65 71 72 74 77 76 72 70 69 69 66 63 59 57 54 52 49 48 48 44 40 36 34 36 37 37 36 35 38 40 42 40 37 33 34 35 33
51 49 53 47 44 57 65 70 72 74 79 80 76 73 71 72 70 67 63 59 56 54 52 50 49 47 42 40 38 39 38 39 38 36 36 38 40 38 38 35 32 32 31
55 52 54 50 43 58 67 72 73 74 78 82 80 76 73 75 74 70 66 62 58 56 52 51 48 49 47 45 43 42 40 41 41 39 37 35 36 37 37 34 31 32 29
45 46 48 47 42 52 67 74 74 72 76 85 87 82 77 78 78 74 70 66 62 59 56 54 52 50 49 47 45 46 44 42 42 42 39 38 35 36 35 33 32 31 30
53 55 55 46 43 51 68 76 78 77 80 86 91 88 83 81 80 78 73 70 66 62 59 56 55 54 52 50 48 48 45 43 42 41 37 40 36 34 33 31 28 30 28
64 62 54 46 41 48 68 76 80 82 83 87 91 93 90 86 83 81 77 73 70 67 62 57 60 57 54 52 51 51 49 45 43 41 38 35 30 27 24 22 21 20 23
55 46 41 39 31 50 63 76 80 82 88 89 91 93 93 90 86 83 81 77 75 72 68 62 63 59 58 56 54 54 52 47 41 40 38 32 29 25 23 21 20 19 21
60 59 51 42 35 41 58 73 79 81 84 91 93 93 93 90 87 84 83 82 80 76 73 69 64 64 64 59 57 57 56 52 45 39 33 30 27 25 24 24 23 21 21
96 75 73 57 40 38 49 64 80 84 84 88 96 96 93 94 93 90 88 86 82 80 78 75 69 70 67 66 64 59 57 54 48 39 32 28 27 26 26 25 23 22 22
117 111 94 77 54 42 37 60 73 80 83 88 96 100 95 98 96 94 92 88 84 83 81 78 75 76 72 73 72 67 61 56 47 40 34 29 27 27 27 26 24 22 21
110 124 120 103 77 57 41 50 73 78 80 86 93 101 100 98 99 99 98 94 92 89 88 88 83 78 76 74 72 69 65 57 49 42 36 33 30 29 28 26 25 23 22
98 112 129 121 102 77 59 48 68 79 79 81 85 99 104 102 104 107 106 103 100 99 98 95 90 80 80 79 77 71 66 58 49 43 39 36 34 32 28 26 26 25 23
88 95 109 117 116 102 75 65 58 77 82 84 87 91 103 110 108 110 112 111 111 107 102 99 91 86 86 83 79 73 67 60 51 46 41 40 37 33 31 28 27 26 24
90 91 92 98 106 112 98 77 65 69 82 84 92 91 92 110 114 114 113 118 117 114 108 105 92 92 90 86 80 74 67 59 54 48 46 43 39 36 33 31 28 26 25
86 89 90 91 91 100 103 86 75 65 80 87 91 96 97 99 112 116 113 115 122 117 118 107 99 99 95 91 85 79 69 62 55 52 48 45 42 38 35 31 26 27 26
90 89 87 92 95 92 97 88 73 68 71 87 89 93 91 102 102 114 116 116 120 122 118 110 110 109 105 98 88 79 71 62 58 54 49 46 42 39 34 31 28 24 24
87 87 90 100 96 95 86 87 77 73 70 82 88 92 83 93 104 109 113 123 118 122 112 119 120 115 108 100 85 76 68 61 58 55 51 47 44 40 37 34 30 29 29
78 85 91 96 97 96 91 92 81 74 71 80 87 86 87 86 98 113 122 115 119 121 116 128 123 117 106 87 88 73 64 60 56 54 53 50 46 44 40 37 34 32 31
67 78 87 86 86 90 87 94 87 69 68 79 82 84 82 79 76 93 100 115 117 118 128 132 118 105 92 86 84 77 52 50 55 55 53 50 48 46 43 40 37 34 33
72 78 84 84 80 89 83 87 94 66 62 77 84 83 78 79 88 74 102 106 116 106 106 94 93 98 100 91 77 58 36 26 60 56 54 53 51 47 45 42 39 36 34
74 76 78 84 77 83 78 80 92 80 70 77 85 87 80 73 84 70 94 92 103 106 82 92 92 85 89 92 85 73 57 51 51 37 61 59 56 53 48 44 42 39 36
64 73 70 70 78 77 75 67 78 80 70 71 83 85 90 73 81 81 83 83 83 101 99 109 102 106 107 110 123 100 64 46 65 47 49 66 64 59 53 49 45 41 38
51 66 61 56 70 68 67 65 71 75 71 74 84 85 86 83 61 68 74 86 92 85 110 105 109 114 118 108 114 105 87 74 60 56 41 71 71 60 56 53 49 45 40
Wind_Direction_500mb
307 297 263 252 238 231 225 219 215 212 210 202 198 193 188 184 183 182 180 181 179 177 174 173 167 162 158 153 147 145 139 137 127 135 136 131 125 124 128 130 135 132 131
342 332 312 257 240 227 224 218 215 212 211 204 199 195 193 188 185 184 184 183 184 181 176 176 173 167 163 158 154 150 144 138 136 131 140 134 129 130 128 129 137 133 131
343 333 315 297 244 232 224 216 214 211 212 206 201 198 197 194 189 189 187 185 185 186 181 178 174 170 168 164 161 156 151 145 139 136 139 140 135 133 130 129 132 137 137
332 323 328 301 261 237 223 219 214 211 211 209 204 202 201 199 194 192 191 189 187 187 186 181 171 179 172 170 165 162 157 152 145 139 138 142 142 139 132 128 127 129 133
316 319 318 314 278 241 226 219 215 211 210 209 207 205 203 201 199 196 195 194 190 189 191 186 178 179 178 172 167 166 164 160 152 147 142 142 141 142 143 137 135 131 129
310 316 314 308 276 246 228 218 215 213 209 210 209 208 205 203 202 200 199 198 195 194 194 187 189 181 181 176 171 170 172 164 159 152 146 145 144 142 139 146 145 135 132
304 312 314 313 281 245 230 220 219 218 212 211 210 209 208 205 204 204 201 201 200 198 197 192 193 187 185 181 177 174 174 171 164 157 155 149 143 141 144 146 150 151 150
299 301 308 306 295 244 234 225 222 221 216 212 212 211 209 208 206 205 203 203 203 200 198 199 195 191 188 185 182 177 177 178 171 165 159 151 152 151 149 151 152 161 163
279 284 290 295 293 265 234 234 228 223 221 216 213 213 212 210 209 208 206 205 204 202 200 201 194 192 192 190 187 182 181 183 177 172 166 164 163 163 165 166 166 167 170
292 292 299 297 287 279 247 235 233 228 222 219 216 214 215 215 214 212 210 208 206 204 200 203 195 196 195 192 189 186 183 182 183 180 172 175 178 180 182 183 182 183 182
274 290 294 298 290 262 257 241 235 233 225 222 220 217 215 215 217 217 214 211 208 205 203 204 201 196 197 193 190 190 187 181 183 184 185 184 188 192 196 200 199 199 204
283 277 289 293 301 282 252 250 236 235 230 225 222 221 216 215 217 216 215 215 211 207 205 206 201 198 196 192 189 191 190 185 187 194 199 201 204 206 204 201 196 194 195
280 278 280 284 288 297 260 255 243 235 235 231 224 222 218 218 218 217 216 214 213 210 205 207 202 200 197 195 191 191 192 191 193 198 205 209 211 202 195 189 186 191 191
288 273 275 277 276 283 285 252 251 241 235 235 231 225 220 219 218 217 217 214 211 209 208 208 207 199 197 197 194 192 194 196 198 201 204 209 202 196 193 190 189 191 192
289 282 272 274 273 272 279 268 247 243 238 238 236 232 225 222 220 218 218 215 213 210 211 211 208 196 196 195 194 195 195 199 202 206 206 203 198 196 195 192 191 190 191
282 283 279 278 270 269 270 270 261 245 239 235 238 233 231 226 223 222 218 218 216 214 213 215 208 196 195 194 196 195 199 200 203 207 204 200 198 199 197 194 193 192 191
279 280 279 276 275 269 264 269 265 249 243 237 238 236 229 229 227 225 222 220 220 215 214 214 204 196 194 193 196 196 200 201 202 203 200 199 199 199 197 199 195 193 194
280 273 276 273 268 267 263 265 263 262 245 241 241 234 232 227 228 228 225 223 220 220 214 211 202 194 193 192 194 195 197 201 201 198 199 199 201 202 200 201 199 188 183
276 276 265 270 264 260 260 257 261 254 249 240 237 235 235 231 222 225 229 222 224 221 213 207 197 195 191 191 192 194 195 198 198 197 198 199 200 201 200 200 199 188 190
275 273 266 264 266 260 253 250 254 256 251 241 237 234 233 229 226 223 222 225 228 220 212 203 191 190 187 187 184 189 189 193 196 196 197 199 200 201 201 203 203 197 193
276 272 272 269 263 260 247 243 247 252 248 236 233 234 235 230 223 225 232 220 221 222 217 207 196 190 181 186 183 183 184 190 195 197 198 199 200 202 202 202 205 205 201
272 268 270 272 265 258 251 238 244 250 248 234 226 228 231 232 229 233 237 225 222 223 208 207 191 181 174 187 184 174 169 186 196 199 201 201 203 205 205 206 208 211 208
285 271 266 267 264 260 251 239 241 249 240 225 223 222 225 227 229 231 237 237 225 216 192 191 188 177 177 187 191 180 162 185 193 202 203 205 207 209 210 211 213 214 215
291 281 268 261 257 262 251 245 236 241 232 220 218 222 222 217 219 227 228 230 216 193 197 190 187 197 182 187 196 196 191 193 177 187 207 209 210 209 212 215 216 217 217
293 289 274 259 256 258 251 242 234 236 237 218 208 219 211 216 217 223 219 215 213 193 197 196 188 194 191 194 199 195 194 187 193 188 198 207 212 212 211 214 218 219 221
299 297 279 258 250 247 247 235 227 231 229 220 198 212 209 208 212 229 225 216 210 210 207 201 201 198 196 200 208 204 203 197 193 198 197 206 210 210 213 216 218 219 222
Wind_Speed_850mb
32 24 38 41 53 54 64 67 65 65 66 63 62 61 60 58 56 55 56 53 50 48 43 39 38 37 34 32 30 29 31 31 36 37 40 39 39 39 40 38 39 38 38
32 30 27 40 49 62 66 67 68 69 70 66 66 65 64 61 59 57 56 53 52 50 47 41 39 39 35 34 31 30 32 33 36 36 40 41 39 39 36 35 38 40 38
39 43 41 33 50 58 65 70 71 73 74 72 69 68 67 65 63 60 57 54 53 50 48 45 42 41 38 33 31 34 34 33 33 36 39 42 42 38 36 35 35 34 34
42 44 54 37 45 57 65 71 72 74 77 76 72 70 69 69 66 63 59 57 54 52 49 48 48 44 40 36 34 36 37 37 36 35 38 40 42 40 37 33 34 35 33
51 49 53 47 44 57 65 70 72 74 79 80 76 73 71 72 70 67 63 59 56 54 52 50 49 47 42 40 38 39 38 39 38 36 36 38 40 38 38 35 32 32 31
55 52 54 50 43 58 67 72 73 74 78 82 80 76 73 75 74 70 66 62 58 56 52 51 48 49 47 45 43 42 40 41 41 39 37 35 36 37 37 34 31 32 29
45 46 48 47 42 52 67 74 74 72 76 85 87 82 77 78 78 74 70 66 62 59 56 54 52 50 49 47 45 46 44 42 42 42 39 38 35 36 35 33 32 31 30
53 55 55 46 43 51 68 76 78 77 80 86 91 88 83 81 80 78 73 70 66 62 59 56 55 54 52 50 48 48 45 43 42 41 37 40 36 34 33 31 28 30 28
64 62 54 46 41 48 68 76 80 82 83 87 91 93 90 86 83 81 77 73 70 67 62 57 60 57 54 52 51 51 49 45 43 41 38 35 30 27 24 22 21 20 23
55 46 41 39 31 50 63 76 80 82 88 89 91 93 93 90 86 83 81 77 75 72 68 62 63 59 58 56 54 54 52 47 41 40 38 32 29 25 23 21 20 19 21
60 59 51 42 35 41 58 73 79 81 84 91 93 93 93 90 87 84 83 82 80 76 73 69 64 64 64 59 57 57 56 52 45 39 33 30 27 25 24 24 23 21 21
96 75 73 57 40 38 49 64 80 84 84 88 96 96 93 94 93 90 88 86 82 80 78 75 69 70 67 66 64 59 57 54 48 39 32 28 27 26 26 25 23 22 22
117 111 94 77 54 42 37 60 73 80 83 88 96 100 95 98 96 94 92 88 84 83 81 78 75 76 72 73 72 67 61 56 47 40 34 29 27 27 27 26 24 22 21
110 124 120 103 77 57 41 50 73 78 80 86 93 101 100 98 99 99 98 94 92 89 88 88 83 78 76 74 72 69 65 57 49 42 36 33 30 29 28 26 25 23 22
98 112 129 121 102 77 59 48 68 79 79 81 85 99 104 102 104 107 106 103 100 99 98 95 90 80 80 79 77 71 66 58 49 43 39 36 34 32 28 26 26 25 23
88 95 109 117 116 102 75 65 58 77 82 84 87 91 103 110 108 110 112 111 111 107 102 99 91 86 86 83 79 73 67 60 51 46 41 40 37 33 31 28 27 26 24
90 91 92 98 106 112 98 77 65 69 82 84 92 91 92 110 114 114 113 118 117 114 108 105 92 92 90 86 80 74 67 59 54 48 46 43 39 36 33 31 28 26 25
86 89 90 91 91 100 103 86 75 65 80 87 91 96 97 99 112 116 113 115 122 117 118 107 99 99 95 91 85 79 69 62 55 52 48 45 42 38 35 31 26 27 26
90 89 87 92 95 92 97 88 73 68 71 87 89 93 91 102 102 114 116 116 120 122 118 110 110 109 105 98 88 79 71 62 58 54 49 46 42 39 34 31 28 24 24
87 87 90 100 96 95 86 87 77 73 70 82 88 92 83 93 104 109 113 123 118 122 112 119 120 115 108 100 85 76 68 61 58 55 51 47 44 40 37 34 30 29 29
78 85 91 96 97 96 91 92 81 74 71 80 87 86 87 86 98 113 122 115 119 121 116 128 123 117 106 87 88 73 64 60 56 54 53 50 46 44 40 37 34 32 31
67 78 87 86 86 90 87 94 87 69 68 79 82 84 82 79 76 93 100 115 117 118 128 132 118 105 92 86 84 77 52 50 55 55 53 50 48 46 43 40 37 34 33
72 78 84 84 80 89 83 87 94 66 62 77 84 83 78 79 88 74 102 106 116 106 106 94 93 98 100 91 77 58 36 26 60 56 54 53 51 47 45 42 39 36 34
74 76 78 84 77 83 78 80 92 80 70 77 85 87 80 73 84 70 94 92 103 106 82 92 92 85 89 92 85 73 57 51 51 37 61 59 56 53 48 44 42 39 36
64 73 70 70 78 77 75 67 78 80 70 71 83 85 90 73 81 81 83 83 83 101 99 109 102 106 107 110 123 100 64 46 65 47 49 66 64 59 53 49 45 41 38
51 66 61 56 70 68 67 65 71 75 71 74 84 85 86 83 61 68 74 86 92 85 110 105 109 114 118 108 114 105 87 74 60 56 41 71 71 60 56 53 49 45 40
Wind_Direction_850mb
307 297 263 252 238 231 225 219 215 212 210 202 198 193 188 184 183 182 180 181 179 177 174 173 167 162 158 153 147 145 139 137 127 135 136 131 125 124 128 130 135 132 131
342 332 312 257 240 227 224 218 215 212 211 204 199 195 193 188 185 184 184 183 184 181 176 176 173 167 163 158 154 150 144 138 136 131 140 134 129 130 128 129 137 133 131
343 333 315 297 244 232 224 216 214 211 212 206 201 198 197 194 189 189 187 185 185 186 181 178 174 170 168 164 161 156 151 145 139 136 139 140 135 133 130 129 132 137 137
332 323 328 301 261 237 223 219 214 211 211 209 204 202 201 199 194 192 191 189 187 187 186 181 171 179 172 170 165 162 157 152 145 139 138 142 142 139 132 128 127 129 133
316 319 318 314 278 241 226 219 215 211 210 209 207 205 203 201 199 196 195 194 190 189 191 186 178 179 178 172 167 166 164 160 152 147 142 142 141 142 143 137 135 131 129
310 316 314 308 276 246 228 218 215 213 209 210 209 208 205 203 202 200 199 198 195 194 194 187 189 181 181 176 171 170 172 164 159 152 146 145 144 142 139 146 145 135 132
304 312 314 313 281 245 230 220 219 218 212 211 210 209 208 205 204 204 201 201 200 198 197 192 193 187 185 181 177 174 174 171 164 157 155 149 143 141 144 146 150 151 150
299 301 308 306 295 244 234 225 222 221 216 212 212 211 209 208 206 205 203 203 203 200 198 199 195 191 188 185 182 177 177 178 171 165 159 151 152 151 149 151 152 161 163
279 284 290 295 293 265 234 234 228 223 221 216 213 213 212 210 209 208 206 205 204 202 200 201 194 192 192 190 187 182 181 183 177 172 166 164 163 163 165 166 166 167 170
292 292 299 297 287 279 247 235 233 228 222 219 216 214 215 215 214 212 210 208 206 204 200 203 195 196 195 192 189 186 183 182 183 180 172 175 178 180 182 183 182 183 182
274 290 294 298 290 262 257 241 235 233 225 222 220 217 215 215 217 217 214 211 208 205 203 204 201 196 197 193 190 190 187 181 183 184 185 184 188 192 196 200 199 199 204
283 277 289 293 301 282 252 250 236 235 230 225 222 221 216 215 217 216 215 215 211 207 205 206 201 198 196 192 189 191 190 185 187 194 199 201 204 206 204 201 196 194 195
280 278 280 284 288 297 260 255 243 235 235 231 224 222 218 218 218 217 216 214 213 210 205 207 202 200 197 195 191 191 192 191 193 198 205 209 211 202 195 189 186 191 191
288 273 275 277 276 283 285 252 251 241 235 235 231 225 220 219 218 217 217 214 211 209 208 208 207 199 197 197 194 192 194 196 198 201 204 209 202 196 193 190 189 191 192
289 282 272 274 273 272 279 268 247 243 238 238 236 232 225 222 220 218 218 215 213 210 211 211 208 196 196 195 194 195 195 199 202 206 206 203 198 196 195 192 191 190 191
282 283 279 278 270 269 270 270 261 245 239 235 238 233 231 226 223 222 218 218 216 214 213 215 208 196 195 194 196 195 199 200 203 207 204 200 198 199 197 194 193 192 191
279 280 279 276 275 269 264 269 265 249 243 237 238 236 229 229 227 225 222 220 220 215 214 214 204 196 194 193 196 196 200 201 202 203 200 199 199 199 197 199 195 193 194
280 273 276 273 268 267 263 265 263 262 245 241 241 234 232 227 228 228 225 223 220 220 214 211 202 194 193 192 194 195 197 201 201 198 199 199 201 202 200 201 199 188 183
276 276 265 270 264 260 260 257 261 254 249 240 237 235 235 231 222 225 229 222 224 221 213 207 197 195 191 191 192 194 195 198 198 197 198 199 200 201 200 200 199 188 190
275 273 266 264 266 260 253 250 254 256 251 241 237 234 233 229 226 223 222 225 228 220 212 203 191 190 187 187 184 189 189 193 196 196 197 199 200 201 201 203 203 197 193
276 272 272 269 263 260 247 243 247 252 248 236 233 234 235 230 223 225 232 220 221 222 217 207 196 190 181 186 183 183 184 190 195 197 198 199 200 202 202 202 205 205 201
272 268 270 272 265 258 251 238 244 250 248 234 226 228 231 232 229 233 237 225 222 223 208 207 191 181 174 187 184 174 169 186 196 199 201 201 203 205 205 206 208 211 208
285 271 266 267 264 260 251 239 241 249 240 225 223 222 225 227 229 231 237 237 225 216 192 191 188 177 177 187 191 180 162 185 193 202 203 205 207 209 210 211 213 214 215
291 281 268 261 257 262 251 245 236 241 232 220 218 222 222 217 219 227 228 230 216 193 197 190 187 197 182 187 196 196 191 193 177 187 207 209 210 209 212 215 216 217 217
293 289 274 259 256 258 251 242 234 236 237 218 208 219 211 216 217 223 219 215 213 193 197 196 188 194 191 194 199 195 194 187 193 188 198 207 212 212 211 214 218 219 221
299 297 279 258 250 247 247 235 227 231 229 220 198 212 209 208 212 229 225 216 210 210 207 201 201 198 196 200 208 204 203 197 193 198 197 206 210 210 213 216 218 219 222